Location: Forst
(46.9333°N, 15.4333°E)
Time: 14:51:53
(UTC+00:00)

ERS-2 - Pass Details

Date: 01 December 2020
Orbit: 492 x 498 km, 98.6° (Epoch: 28 January)

Event Time Altitude Azimuth Distance (km) Brightness Sun altitude
Exits shadow 16:35:22 18° 36° (NE) 1,281 3.7 -13.8°
Maximum altitude 16:37:45 42° 100° (E) 723 2.5 -14.2°
Drops below altitude 10° 16:41:15 10° 173° (S) 1,699 4.9 -14.8°
Sets 16:43:23 0° 180° (S) 2,576 6.0 -15.2°
